Other Public Products
Issued by NWS Grand Forks, ND

Home | Current Version | Previous Version | Graphics & Text | Print | Product List | Glossary On
Versions: 1 2 3 4 5 6 7 8 9 10 11 12 13 14 15 16 17 18 19 20 21 22 23 24 25 26 27 28 29 30 31 32 33 34 35 36 37 38 39 40 41 42 43 44 45 46 47 48 49 50
000
FPUS83 KFGF 011010
OPUFGF
PRAIRIE TO PINES WEATHER ROUNDUP
NATIONAL WEATHER SERVICE EASTERN NORTH DAKOTA/GRAND FORKS ND
400 AM CST SUN FEB 01 2015

 **SATELLITE DATA USED TO AUGMENT SKY COVER AT AUTOMATED STATIONS**
 *****  WEATHER ACROSS EASTERN NORTH DAKOTA  *****

CITY           SKY/WX    TMP DP  RH WIND       PRES   REMARKS
GRAND FORKS    PTCLDY   -10 -18  67 N13       30.57S WCI -30
GRAND FORKS AF PTCLDY   -11 -20  64 N12       30.57S WCI -31
GRAND CITY NWS   N/A    -11 N/A N/A VRB10       N/A  WCI -30
BUXTON         NOT AVBL
DEVILS LAKE    MOCLDY   -11 -20  64 N10       30.50S WCI -30
FARGO          CLOUDY    -4 -12  68 N18       30.47R WCI -26
WAHPETON ARPT  PTSUNNY    1  -8  66 N21G28    30.38F WCI -20
$$

 *****  WEATHER ACROSS CENTRAL AND WESTERN NORTH DAKOTA  *****

CITY           SKY/WX    TMP DP  RH WIND       PRES   REMARKS
JAMESTOWN      CLOUDY    -7 -15  68 N15       30.44S WCI -28
BISMARCK       LGT SNOW  -5 -12  72 N10       30.47S WCI -23
MINOT          PTCLDY    -9 -18  64 N9        30.50F WCI -26
MINOT AFB      PTCLDY    -8 -16  69 N8        30.51F WCI -25
GARRISON         N/A     -8 -14  74 N7        30.47S WCI -23
WILLISTON      PTCLDY    -7 -13  75 N3        30.50S
DICKINSON      LGT SNOW  -4 -10  75 N8        30.36S WCI -19
HETTINGER      LGT SNOW  -4  -9  79 N14       30.36R WCI -24
$$

 *****  OTHER OBSERVATIONS NORTHEAST NORTH DAKOTA  *****

CITY           SKY/WX    TMP DP  RH WIND       PRES   REMARKS
WALHALLA         N/A    -13 -18  77 NW8       30.61S WCI -30
LANGDON        NOT AVBL
CAVALIER       FAIR     -11 -18  70 N12       30.61S WCI -31
GRAFTON        NOT AVBL
CANDO          PTSUNNY  -13 -20  70 N8        30.53F WCI -30
FORT TOTTEN      N/A    -12 -23  58 N5        29.95  WCI -24
ROLLA          CLOUDY   -13 -22  64 N13       30.49S WCI -34
RUGBY          FAIR     -13 -18  77 NE5       30.52S WCI -25
 ***** THE ABOVE OBSERVATIONS ARE NON NWS ARE NOT QUALITY
        CONTROLLED AND MAY MIS-REPORT RAIN FOR SNOW...
$$

 *****  OTHER OBSERVATIONS SOUTHEAST NORTH DAKOTA *****

CITY           SKY/WX    TMP DP  RH WIND       PRES   REMARKS
COOPERSTOWN    NOT AVBL
VALLEY CITY    CLOUDY    -6 -13  71 N18       30.44S WCI -29
OAKES            N/A     -2  -9  71 N22       30.40S WCI -26
GWINNER        CLOUDY     0 N/A N/A N22G28    30.41R WCI -23
BUFFALO        NOT AVBL
WYNDMERE         N/A     -2 -11  65 N16         N/A  WCI -23
 ***** THE ABOVE OBSERVATIONS ARE NON NWS ARE NOT QUALITY
       CONTROLLED AND MAY MIS-REPORT RAIN FOR SNOW...
$$

  *****  WEATHER ACROSS NORTHERN MINNESOTA  *****

CITY           SKY/WX    TMP DP  RH WIND       PRES   REMARKS
FLAG ISLAND    MOCLDY   -18 -24  76 NW8       30.51F WCI -37
WARROAD        PTCLDY   -18 -24  76 NW7       30.52F WCI -35
ROSEAU         PTCLDY   -17 -22  76 CALM      30.54F
HALLOCK        PTCLDY   -15 -22  70 N8        30.58S WCI -32
THF RVR FALLS  PTCLDY   -11 -17  77 N10       30.49F WCI -30
HALSTAD          N/A     -7 -15  68 N18         N/A  WCI -30
FOSSTON        PTCLDY    -9 -17  70 NE10      30.45S WCI -28
BAUDETTE       MOCLDY   -16 -21  78 NW6       30.49S WCI -31
WASKISH        PTCLDY   -15 -18  84 CALM      30.47S
CROOKSTON      PTCLDY    -9 -17  70 N15       30.55S WCI -31
$$
  *****  WEATHER ACROSS CENTRAL AND WEST MINNESOTA  *****

CITY           SKY/WX    TMP DP  RH WIND       PRES   REMARKS
BEMIDJI        MOCLDY   -10 -16  75 N7        30.41S WCI -25
PARK RAPIDS    MOCLDY    -3 -12  65 N9        30.34F WCI -19
WADENA         MOCLDY     0  -9  65 NE12        N/A  WCI -18
DETROIT LAKES  PTCLDY     0  -8  71 NE12      30.36F WCI -18
MOORHEAD       PTCLDY     0  -9  65 N22       30.45S WCI -23
FERGUS FALLS   PTCLDY     1  -9  60 NE13G18   30.38S WCI -16
ELBOW LAKE     FAIR       4  -4  70 NE13G21   30.30S WCI -13
MORRIS MN      MOCLDY     9   0  66 N21       30.26F WCI -11
STAPLES        MOCLDY     1  -9  60 NE10      30.31S WCI -14
WHEATON        PTCLDY     1  -6  71 N20G25    30.36S WCI -20
$$
  *****  WEATHER ELSEWHERE ACROSS MINNESOTA  *****

CITY           SKY/WX    TMP DP  RH WIND       PRES   REMARKS
DULUTH         FLURRIES   0  -7  72 N9        30.30R WCI -15
INTRNTL FALLS  MOCLDY   -22 -27  77 N3        30.47S
ELY            PTCLDY   -11 -17  77 N3        30.39S
CLOQUET        FLURRIES   0  -8  71 N8        30.30F WCI -15
BRAINERD       PTCLDY     1  -9  62 N15       30.32S WCI -18
HIBBING        CLOUDY    -5 -15  62 NE9       30.37S WCI -22
ALEXANDRIA     MOCLDY     5  -4  66 NE15      30.26R WCI -13
SAINT CLOUD    CLOUDY    11   1  64 NE10      30.24S WCI  -3
MINNEAPOLIS    LGT SNOW  16  10  77 NE18      30.18F WCI   0
$$

  *****  WEATHER ACROSS SOUTH DAKOTA  *****

CITY           SKY/WX    TMP DP  RH WIND       PRES   REMARKS
SIOUX FALLS    LGT SNOW  17  13  84 NE29G38   30.06R VSB 1   WCI  -2
BROOKINGS      NOT AVBL
WATERTOWN      LGT SNOW   2  -4  76 N22G32    30.18R WCI -20
HURON          LGT SNOW   2  -3  80 N21       30.25R WCI -20
SISSETON         N/A      0  -6  76 N23G29    30.34S WCI -23
ABERDEEN       LGT SNOW   0  -8  69 N20G30    30.35S WCI -22
MITCHELL       LGT SNOW   8   4  83 N23G32    30.19R VSB 1   WCI -13
PIERRE         LGT SNOW   4  -1  80 N17       30.30R WCI -16
MOBRIDGE       FLURRIES  -1  -8  72 N20       30.35R WCI -23
RAPID CITY     CLOUDY     5   2  87 N16       30.24R WCI -14
$$

  *****  SOME WEATHER IN NEARBY STATES *****

CITY           SKY/WX    TMP DP  RH WIND       PRES   REMARKS
GLASGOW MT     PTCLDY    -2  -7  79 E6        30.45F WCI -14
GREAT FALLS MT CLOUDY    -2  -5  87 S3        30.31F
CHEYENNE WY    MOCLDY    16  12  84 N15G25    30.00R WCI   1
SCOTTSBLUFF NE CLOUDY    23  17  78 NW20      30.11R WCI   8
OMAHA NE       LGT SNOW  33  32  96 NE8       29.81F FOG
DES MOINES IA  LGT SNOW  33  31  92 E7        29.82F FOG
DAVENPORT IA   LGT SNOW  32  30  92 E12       29.92F VSB 3/4 WCI  23
CHICAGO IL     LGT SNOW  31  29  92 E10       30.04F VSB 3/4 WCI  22
EAU CLAIRE WI  LGT SNOW  15   9  76 NE15      30.19F WCI   0
LA CROSSE WI   NOT AVBL
$$

  *****  SOME NATIONAL WEATHER *****

CITY           SKY/WX    TMP DP  RH WIND       PRES   REMARKS
LA GUARDIA NY  MOCLDY    25  10  53 SW10      30.20S WCI  15
RALEIGH NC     CLOUDY    36  17  46 CALM      30.26F
ATLANTA GA     CLOUDY    42  24  49 SE3       30.20F
NEW ORLEANS LA CLOUDY    61  54  77 SE12      30.02F
OKLAHOMA CITY  CLOUDY    46  44  93 SW10      29.79F
ALBUQUERQUE NM PTCLDY    36  31  82 N7        30.00R
SALT LAKE CITY CLEAR     29  26  89 CALM      30.19S
LOS ANGELES CA CLEAR     54  52  93 SE3       30.01S
BOISE ID       PTCLDY    34  25  69 SE9       30.19S
SEATTLE WA     CLOUDY    41  39  93 CALM      30.08S
$$

*** WEATHER ACROSS MANITOBA...SASKATCHEWAN AND ONTARIO ***
                ***ONTARIO***

CITY           SKY/WX    TMP DP  RH WIND       PRES   REMARKS
GERALDTON      CLEAR    -33 -40  68 W2        30.40S
THUNDER BAY    CLEAR    -17 -22  76 NW3       30.51S
SIOUX LOOKOUT  CLEAR    -31 -38  68 CALM      30.45S
TORONTO        FLURRIES  21  14  73 N16G22    30.20R WCI   7
BIG TROUT LK   CLEAR    -26 -31  75 W9        30.36F WCI -47
PICKLE LAKE    NOT AVBL
DRYDEN         CLEAR    -22 -27  76 NW3       30.45S
KENORA         PTCLDY   -22 -26  83 N9        30.47F WCI -42
$$
                *** MANITOBA***

CITY           SKY/WX    TMP DP  RH WIND       PRES   REMARKS
BRANDON        PTCLDY   -18 -26  69 W7        30.57S WCI -35
DAUPHIN        CLEAR    -18 -27  63 SW8       30.58F WCI -37
ISLAND LAKE    CLEAR    -24 -29  76 W9        30.45F WCI -45
PILOT MOUND      N/A    -17 -24  70 N5          N/A  WCI -29
THE PAS        CLEAR    -22 -27  76 W3        30.53F
THOMPSON       CLEAR    -27 -33  75 W6        30.42S WCI -44
WINNIPEG       MOCLDY   -17 -26  63 NW6       30.63F WCI -31
LYNN LAKE      CLEAR    -26 -31  75 W8        30.35F WCI -45
GILLAM         CLEAR    -22 -31  63 W13       30.36F WCI -46
$$
                ***SASKATCHEWAN***

CITY           SKY/WX    TMP DP  RH WIND       PRES   REMARKS
ESTEVAN        PTCLDY   -11 -17  77 SE3       30.50S
KINDERSLEY     CLEAR    -11 -15  84 S9        30.40F WCI -29
LLOYDMINSTER   CLEAR     -4  -8  84 S9        30.33F WCI -20
PRINCE ALBERT  CLEAR    -24 -29  76 CALM      30.49F
REGINA         PTCLDY    -9 -13  84 NW2       30.50S
YORKTON        PTCLDY   -17 -24  70 SW6       30.51F WCI -31
N. BATTLEFORD  MOCLDY    -4  -9  77 SW5       30.45F WCI -15


USA.gov is the U.S. government's official web portal to all federal, state and local government web resources and services.